FW4030 Weather Reports


Display with metric or nautical units.
time (UTC)temp
F
wind
direction
speed
MPH
gust
MPH
rain 1hr
in
rain 24hr
in
rain mn
in
humidity
%
barometer
mb
20260905130421 70 178 7.0 12.0 0.00 0.00 0.00 60 1032.6
20260905125422 70 180 8.0 12.0 0.00 0.00 0.00 60 1032.6
20260905124421 71 178 11.0 16.0 0.00 0.00 0.00 59 1032.5
20260905123422 70 177 10.0 15.0 0.00 0.00 0.00 62 1032.5
20260905122522 69 164 8.0 17.0 0.00 0.00 0.00 63 1032.5
20260905121522 68 155 8.0 13.0 0.00 0.00 0.00 62 1032.4
20260905120521 69 145 8.0 15.0 0.00 0.00 0.00 62 1032.2
20260905115522 69 147 11.0 17.0 0.00 0.00 0.00 64 1032.2
20260905113621 68 180 9.0 15.0 0.00 0.00 0.00 69 1032.0
20260905112622 67 112 5.0 10.0 0.00 0.00 0.00 70 1031.9
20260905112522 67 155 5.0 8.0 0.00 0.00 0.00 70 1032.0
20260905111522 66 168 12.0 17.0 0.00 0.00 0.00 71 1031.9
20260905110521 66 166 9.0 14.0 0.00 0.00 0.00 71 1031.8
20260905105521 65 160 10.0 14.0 0.00 0.00 0.00 72 1031.8
20260905104522 65 147 9.0 18.0 0.00 0.00 0.00 72 1031.9
20260905103620 65 155 9.0 14.0 0.00 0.00 0.00 73 1031.6
20260905102624 65 164 3.0 6.0 0.00 0.00 0.00 74 1031.5
20260905100637 66 123 8.0 13.0 0.00 0.00 0.00 74 1031.3
20260905100522 66 150 7.0 11.0 0.00 0.00 0.00 74 1031.4
20260905095522 66 160 7.0 11.0 0.00 0.00 0.00 77 1031.3
20260905094523 65 151 8.0 14.0 0.00 0.00 0.00 77 1031.2
20260905094421 65 142 10.0 17.0 0.00 0.00 0.00 77 1031.3
20260905093520 64 129 8.0 13.0 0.00 0.00 0.00 79 1031.3
20260905092524 64 134 7.0 14.0 0.00 0.00 0.00 80 1031.2
20260905091523 65 157 8.0 12.0 0.00 0.00 0.00 81 1031.2
20260905090522 64 147 6.0 10.0 0.00 0.00 0.00 81 1031.0
20260905085521 64 152 7.0 12.0 0.00 0.00 0.00 82 1030.9
20260905084522 64 141 6.0 10.0 0.00 0.00 0.00 83 1030.8
20260905084420 64 125 6.0 12.0 0.00 0.00 0.00 83 1030.8
20260905083423 63 162 7.0 9.0 0.00 0.00 0.00 84 1030.8
20260905081523 63 142 5.0 11.0 0.00 0.00 0.00 84 1030.5
20260905080521 63 113 4.0 8.0 0.00 0.00 0.00 85 1030.6
20260905075521 63 116 3.0 7.0 0.00 0.00 0.00 86 1030.3
20260905074621 62 142 3.0 7.0 0.00 0.00 0.00 88 1030.3
20260905072622 61 152 4.0 9.0 0.00 0.00 0.00 90 1030.1
20260905071623 60 150 4.0 7.0 0.00 0.00 0.00 91 1029.9
20260905071523 60 127 6.0 9.0 0.00 0.00 0.00 92 1029.8
20260905071424 59 126 5.0 9.0 0.00 0.00 0.00 92 1029.9
20260905070425 59 132 4.0 6.0 0.00 0.00 0.00 92 1029.8
20260905065521 58 115 2.0 4.0 0.00 0.00 0.00 93 1029.6
20260905065420 58 126 4.0 7.0 0.00 0.00 0.00 93 1029.6
20260905064422 57 142 4.0 7.0 0.00 0.00 0.00 93 1029.5
20260905063520 57 119 5.0 8.0 0.00 0.00 0.00 93 1029.6
20260905062522 56 135 2.0 3.0 0.00 0.00 0.00 94 1029.3
20260905061521 56 117 3.0 6.0 0.00 0.00 0.00 94 1029.1
20260905060521 56 114 4.0 7.0 0.00 0.00 0.00 94 1029.1
20260905055523 55 120 2.0 4.0 0.00 0.00 0.00 94 1029.1
20260905054521 55 114 2.0 5.0 0.00 0.00 0.00 94 1029.0
20260905052620 55 120 3.0 5.0 0.00 0.00 0.00 94 1028.8
20260905052537 55 120 3.0 5.0 0.00 0.00 0.00 94 1028.8
20260905051621 55 126 4.0 6.0 0.00 0.00 0.00 94 1028.7
20260905050623 55 126 3.0 5.0 0.00 0.00 0.00 94 1028.7
20260905050521 55 119 3.0 5.0 0.00 0.00 0.00 94 1028.5
20260905044522 55 127 3.0 5.0 0.00 0.00 0.00 94 1028.4
20260905043523 55 120 2.0 4.0 0.00 0.00 0.00 94 1028.3
20260905042522 55 124 2.0 6.0 0.00 0.00 0.00 94 1028.3
20260905040621 56 128 3.0 7.0 0.00 0.00 0.00 94 1028.2
20260905035622 56 130 3.0 4.0 0.00 0.00 0.00 94 1028.0
20260905034622 55 126 2.0 4.0 0.00 0.00 0.00 94 1027.9
20260905033720 55 123 2.0 4.0 0.00 0.00 0.00 94 1027.8
20260905032721 55 116 2.0 3.0 0.00 0.00 0.00 94 1027.8
20260905031820 55 121 3.0 5.0 0.00 0.00 0.00 94 1027.7
20260905031721 55 121 4.0 5.0 0.00 0.00 0.00 94 1027.8
20260905030738 56 119 3.0 6.0 0.00 0.00 0.00 94 1027.7
20260905025821 56 119 2.0 5.0 0.00 0.00 0.00 94 1027.8
20260905024821 56 131 3.0 5.0 0.00 0.00 0.00 94 1027.7
20260905023921 56 128 4.0 6.0 0.00 0.00 0.00 94 1027.7
20260905022821 56 121 2.0 5.0 0.00 0.00 0.00 94 1027.6
20260905021822 56 127 3.0 5.0 0.00 0.00 0.00 94 1027.6
20260905020920 56 127 4.0 6.0 0.00 0.00 0.00 94 1027.7
20260905015923 56 120 3.0 4.0 0.00 0.00 0.00 94 1027.5
20260905014923 56 129 3.0 5.0 0.00 0.00 0.00 94 1027.5
20260905012922 56 117 3.0 4.0 0.00 0.00 0.00 93 1027.2
20260905011921 56 113 2.0 3.0 0.00 0.00 0.00 93 1027.3
20260905010922 56 112 2.0 3.0 0.00 0.00 0.00 93 1027.2
20260905010823 56 113 2.0 4.0 0.00 0.00 0.00 93 1027.2
20260905005822 56 116 2.0 4.0 0.00 0.00 0.00 93 1027.1
20260905004920 56 114 4.0 6.0 0.00 0.00 0.00 93 1027.2
20260905003922 56 112 2.0 3.0 0.00 0.00 0.00 93 1027.2
20260905002923 56 120 3.0 6.0 0.00 0.00 0.00 93 1027.1
20260905001922 56 131 2.0 4.0 0.00 0.00 0.00 93 1027.2
20260905001823 56 130 2.0 3.0 0.00 0.00 0.00 93 1027.1
20260905000821 56 134 2.0 5.0 0.00 0.00 0.00 93 1027.0
20260904235826 56 135 2.0 3.0 0.00 0.00 0.00 93 1027.0
20260904234921 56 128 3.0 5.0 0.00 0.00 0.00 93 1027.0
20260904233820 56 135 3.0 4.0 0.00 0.00 0.00 93 1026.9
20260904232822 56 127 2.0 4.0 0.00 0.00 0.00 93 1026.9
20260904230822 57 133 3.0 4.0 0.00 0.00 0.00 94 1026.8
20260904225823 57 122 4.0 6.0 0.00 0.00 0.00 94 1026.6
20260904225723 57 128 3.0 5.0 0.00 0.00 0.00 94 1026.8
20260904224821 57 128 1.0 3.0 0.00 0.00 0.00 94 1026.9
20260904223822 58 131 1.0 4.0 0.00 0.00 0.00 94 1026.6
20260904222823 58 120 2.0 4.0 0.00 0.00 0.00 94 1026.7
20260904220822 59 116 2.0 4.0 0.00 0.00 0.00 94 1026.4
20260904215821 59 129 2.0 3.0 0.00 0.00 0.00 94 1026.2
20260904213822 59 119 2.0 4.0 0.00 0.00 0.00 95 1026.1
20260904213739 59 116 2.0 3.0 0.00 0.00 0.00 95 1026.1
20260904213623 59 114 2.0 4.0 0.00 0.00 0.00 95 1026.1
20260904212623 59 114 1.0 3.0 0.00 0.00 0.00 95 1025.9
20260904211622 59 112 1.0 3.0 0.00 0.00 0.00 95 1026.0
20260904210621 59 112 1.0 2.0 0.00 0.00 0.00 95 1025.9
20260904204622 60 112 1.0 2.0 0.00 0.00 0.00 95 1025.7
20260904203721 60 112 2.0 2.0 0.00 0.00 0.00 95 1025.8
20260904203621 60 112 2.0 4.0 0.00 0.00 0.00 95 1025.7
20260904203522 60 117 3.0 5.0 0.00 0.00 0.00 95 1025.6
20260904202621 60 180 1.0 2.0 0.00 0.00 0.00 95 1025.4
20260904201622 60 180 0.0 3.0 0.00 0.00 0.00 95 1025.5
20260904200622 60 180 2.0 3.0 0.00 0.00 0.00 94 1025.4
20260904195624 60 112 3.0 5.0 0.00 0.00 0.00 95 1025.4
20260904195522 60 177 3.0 5.0 0.00 0.00 0.00 95 1025.5
20260904195439 61 180 1.0 2.0 0.00 0.00 0.00 95 1025.4
20260904194523 61 180 2.0 3.0 0.00 0.00 0.00 95 1025.3
20260904193622 61 180 2.0 4.0 0.00 0.00 0.00 95 1025.3
20260904191620 61 180 3.0 4.0 0.00 0.00 0.00 95 1025.0
20260904190624 61 180 5.0 6.0 0.00 0.00 0.00 95 1024.9
20260904185621 61 180 3.0 4.0 0.00 0.00 0.00 96 1024.6
20260904184622 61 180 4.0 7.0 0.00 0.00 0.00 96 1024.7
20260904183621 62 173 6.0 9.0 0.00 0.00 0.00 96 1024.4
20260904182623 62 180 4.0 6.0 0.00 0.00 0.00 96 1024.2
20260904181622 62 180 4.0 5.0 0.00 0.00 0.00 96 1024.2
20260904180720 63 114 2.0 4.0 0.00 0.00 0.00 96 1024.0
20260904180622 63 180 2.0 5.0 0.00 0.00 0.00 96 1023.8
20260904175622 63 162 3.0 5.0 0.00 0.00 0.00 96 1023.7
20260904174621 63 171 3.0 7.0 0.00 0.00 0.00 96 1023.7
20260904173622 63 180 3.0 4.0 0.00 0.00 0.00 96 1023.5
20260904172623 63 126 4.0 7.0 0.00 0.00 0.00 96 1023.3
20260904172521 63 173 3.0 5.0 0.00 0.00 0.00 96 1023.4
20260904172422 63 180 2.0 6.0 0.00 0.00 0.00 96 1023.3
20260904171520 63 112 3.0 6.0 0.00 0.00 0.00 96 1023.3
20260904170521 63 124 4.0 7.0 0.00 0.00 0.00 96 1023.2
20260904165523 63 130 2.0 6.0 0.00 0.00 0.00 96 1023.2
20260904164521 64 133 3.0 8.0 0.00 0.00 0.00 96 1022.8
20260904163522 64 128 3.0 6.0 0.00 0.00 0.00 96 1023.0
20260904162521 63 154 5.0 10.0 0.00 0.00 0.00 96 1023.1
20260904161521 63 160 6.0 10.0 0.00 0.00 0.00 96 1023.2
20260904155522 63 142 4.0 8.0 0.00 0.00 0.00 96 1022.8
20260904154522 63 114 4.0 7.0 0.00 0.00 0.00 96 1022.6
20260904154423 63 143 5.0 11.0 0.00 0.00 0.00 96 1022.6
20260904152422 63 130 5.0 8.0 0.00 0.00 0.00 96 1022.9
20260904150422 63 166 8.0 11.0 0.00 0.00 0.00 96 1022.8
20260904145422 63 147 3.0 7.0 0.00 0.00 0.00 96 1022.7
20260904145322 63 140 6.0 10.0 0.00 0.00 0.00 96 1022.8
20260904144324 63 159 5.0 10.0 0.00 0.00 0.00 96 1022.8
20260904143223 63 171 10.0 14.0 0.00 0.00 0.00 95 1022.7
20260904142222 63 169 9.0 14.0 0.00 0.00 0.00 95 1022.2
20260904141320 63 167 8.0 16.0 0.00 0.00 0.00 95 1022.4
20260904141221 63 173 7.0 12.0 0.00 0.00 0.00 94 1022.5
20260904140321 64 175 8.0 11.0 0.00 0.00 0.00 93 1022.2
20260904140225 64 175 9.0 16.0 0.00 0.00 0.00 93 1022.2
20260904135321 66 175 10.0 18.0 0.00 0.00 0.00 93 1022.0
20260904134323 68 177 11.0 17.0 0.00 0.00 0.00 93 1021.8
20260904133323 68 168 6.0 11.0 0.00 0.00 0.00 93 1021.2
20260904132420 69 145 8.0 12.0 0.00 0.00 0.00 92 1021.1
20260904132324 69 164 10.0 14.0 0.00 0.00 0.00 92 1021.3
20260904131321 69 137 5.0 8.0 0.00 0.00 0.00 91 1021.1